This demonstration page uses our WeatherBlox Daily Observations layout. Learn more.

Left ArrowRight Arrow

Hourly Observations for March 15, 2019

Temp ( °F °C ) Dew Point ( °F °C ) Humidity (%) Winds ( mph kmh ) Pressure ( in mb ) Visibility ( mi km ) Precip ( " mm )
12:52 am 00:52 Cloudy 34 1.1 24 -4.4 67 67 NW 29 46 30.04 1017 10 16 0.00 0.00
1:32 am 01:32 Cloudy 34 1.1 24 -4.4 67 67 NW 24 39 30.09 1019 10 16 0.00 0.00
1:52 am 01:52 Cloudy 33 0.6 24 -4.4 70 70 NW 29 46 30.07 1018 10 16 0.00 0.00
2:48 am 02:48 Partly Cloudy 32 0 25 -4 75 75 NW 20 31 30.12 1020 10 16 0.00 0.00
2:52 am 02:52 Partly Cloudy 32 0 24 -4.4 73 73 NW 21 33 30.09 1019 10 16 0.00 0.00
3:52 am 03:52 Partly Cloudy 32 0 22 -5.6 66 66 NW 22 35 30.12 1020 10 16 0.00 0.00
4:52 am 04:52 Partly Cloudy 32 0 21 -6.1 64 64 NW 21 33 30.14 1021 10 16 0.00 0.00
5:52 am 05:52 Partly Cloudy 32 0 21 -6.1 64 64 NW 23 37 30.16 1022 10 16 0.00 0.00
6:52 am 06:52 Mostly Clear 31 -0.6 20 -6.7 64 64 NW 18 30 30.21 1023 10 16 0.00 0.00
7:52 am 07:52 Mostly Sunny 31 -0.6 22 -5.6 69 69 NW 17 28 30.24 1024 10 16 0.00 0.00
8:52 am 08:52 Mostly Sunny 34 1.1 23 -5 64 64 NW 16 26 30.26 1025 10 16 0.00 0.00
9:52 am 09:52 Mostly Sunny 36 2.2 24 -4.4 62 62 WNW 17 28 30.29 1026 10 16 0.00 0.00
10:52 am 10:52 Mostly Sunny 38 3.3 25 -3.9 60 60 NW 15 24 30.31 1026 10 16 0.00 0.00
11:52 am 11:52 Mostly Sunny 40 4.4 25 -3.9 55 55 W 16 26 30.32 1027 10 16 0.00 0.00
12:52 pm 12:52 Mostly Sunny 43 6.1 27 -2.8 53 53 W 21 33 30.31 1027 10 16 0.00 0.00
1:52 pm 13:52 Mostly Sunny 44 6.7 28 -2.2 53 53 W 21 33 30.31 1027 10 16 0.00 0.00
2:52 pm 14:52 Mostly Cloudy 45 7.2 28 -2.2 52 52 NW 18 30 30.30 1026 10 16 0.00 0.00
3:52 pm 15:52 Partly Cloudy 46 7.8 27 -2.8 47 47 NW 15 24 30.30 1026 10 16 0.00 0.00
4:52 pm 16:52 Mostly Cloudy 44 6.7 27 -2.8 51 51 NW 15 24 30.33 1027 10 16 0.00 0.00
5:52 pm 17:52 Partly Cloudy 44 6.7 24 -4.4 45 45 WNW 18 30 30.32 1027 10 16 0.00 0.00
6:52 pm 18:52 Mostly Sunny 42 5.6 25 -3.9 51 51 NW 16 26 30.34 1027 10 16 0.00 0.00
7:52 pm 19:52 Clear 38 3.3 25 -3.9 60 60 NNW 9 15 30.36 1028 10 16 0.00 0.00
8:52 pm 20:52 Clear 35 1.7 26 -3.3 70 70 NNW 6 9 30.37 1028 10 16 0.00 0.00
9:52 pm 21:52 Clear 35 1.7 23 -5 61 61 WNW 3 6 30.37 1028 10 16 0.00 0.00
10:52 pm 22:52 Clear 32 0 24 -4.4 73 73 Calm 30.38 1029 10 16 0.00 0.00
11:52 pm 23:52 Clear 30 -1.1 23 -5 75 75 Calm 30.38 1029 10 16 0.00 0.00

Powered by AerisWeather